Klamath Falls, OR

2:56 AM PST on December 03, 2016 (GMT -0800)
Klamath Falls International

Weather History for KLMT - September, 2012

Change the Weather History Date:

Thursday, September 6, 2012

  Actual Average Record
Temperature  
Mean Temperature 64 °F 60 °F  
Max Temperature 84 °F 79 °F 92 °F (1962)
Min Temperature 44 °F 42 °F 28 °F (2001)
Degree Days  
Heating Degree Days 1 6  
Month to date heating degree days 19 30  
Since 1 July heating degree days 99 149  
Cooling Degree Days 0 1  
Month to date cooling degree days 0 6  
Year to date cooling degree days 175 165  
Growing Degree Days 14 (Base 50)    
Moisture  
Dew Point 38 °F    
Average Humidity 52    
Maximum Humidity 83    
Minimum Humidity 15    
Precipitation  
Precipitation 0.00 in 0.02 in 0.16 in (1978)
Month to date precipitation 0.00 0.12  
Year to date precipitation 6.12 9.86  
Sea Level Pressure  
Sea Level Pressure 30.01 in    
Wind  
Wind Speed 4 mph (SSE)    
Max Wind Speed 14 mph    
Max Gust Speed 18 mph    
Visibility 7 miles    
Events      
T = Trace of Precipitation, MM = Missing Value Source: NWS Daily Summary

Daily Weather History Graph

Daily Weather History Graph

Search for Another Location

Airport or City:

Trip Planner

Search our weather history database for the weather conditions in past years. The results will help you decide how hot, cold, wet, or windy it might be!

Date:

Astronomy

Sep. 06, 2012 Rise Set
Actual Time 6:38 AM PDT 7:31 PM PDT
Civil Twilight 6:09 AM PDT 7:59 PM PDT
Nautical Twilight 5:35 AM PDT 8:33 PM PDT
Astronomical Twilight 5:00 AM PDT 9:08 PM PDT
Moon 10:38 PM PDT (9/6) 12:49 PM PDT (9/6)
Length of Visible Light 13h 49m
Length of Day
12h 52m
Waning Gibbous, 66% of the Moon is Illuminated
Sep 6
Waning Gibbous
Sep 8
Last Quarter
Sep 15
New
Sep 22
First Quarter
Sep 29
Full

Hourly Weather History & Observations

Time (PDT) Temp. Dew Point Humidity Pressure Visibility Wind Dir Wind Speed Gust Speed Precip Events Conditions
12:46 AM 51.8 °F 42.8 °F 71% 30.07 in 1.5 mi Calm Calm - N/A   Haze
12:53 AM 52.0 °F 43.0 °F 71% 29.96 in 0.8 mi Calm Calm - N/A   Haze
1:00 AM 53.6 °F 41.0 °F 62% 30.07 in 2.0 mi Calm Calm - N/A   Haze
1:07 AM 53.6 °F 42.8 °F 67% 30.07 in 4.0 mi Calm Calm - N/A   Haze
1:16 AM 51.8 °F 39.2 °F 62% 30.07 in 2.5 mi Calm Calm - N/A   Haze
1:23 AM 51.8 °F 41.0 °F 67% 30.07 in 5.0 mi SSE 3.5 mph - N/A   Haze
1:53 AM 51.1 °F 39.0 °F 63% 29.96 in 3.0 mi Calm Calm - N/A   Haze
2:53 AM 48.9 °F 36.0 °F 61% 29.97 in 5.0 mi West 3.5 mph - N/A   Haze
3:53 AM 51.1 °F 39.0 °F 63% 29.96 in 3.0 mi Calm Calm - N/A   Haze
3:55 AM 50.0 °F 39.2 °F 66% 30.08 in 1.8 mi NNW 4.6 mph - N/A   Haze
4:05 AM 48.2 °F 41.0 °F 76% 30.08 in 3.0 mi NE 3.5 mph - N/A   Haze
4:17 AM 48.2 °F 41.0 °F 76% 30.08 in 2.0 mi Calm Calm - N/A   Haze
4:28 AM 48.2 °F 41.0 °F 76% 30.08 in 5.0 mi Calm Calm - N/A   Haze
4:53 AM 50.0 °F 39.0 °F 66% 29.96 in 9.0 mi Calm Calm - N/A   Clear
5:53 AM 48.0 °F 39.0 °F 71% 29.96 in 10.0 mi West 3.5 mph - N/A   Clear
6:00 AM 48.2 °F 39.2 °F 71% 30.07 in 10.0 mi Calm Calm - N/A   Scattered Clouds
6:53 AM 45.0 °F 39.9 °F 82% 29.99 in 10.0 mi Calm Calm - N/A   Scattered Clouds
7:53 AM 55.0 °F 37.9 °F 53% 30.00 in 9.0 mi Calm Calm - N/A   Scattered Clouds
8:53 AM 60.1 °F 39.9 °F 47% 30.01 in 10.0 mi ESE 5.8 mph - N/A   Scattered Clouds
9:53 AM 66.2 °F 39.2 °F 37% 30.00 in 10.0 mi SE 5.8 mph - N/A   Partly Cloudy
10:53 AM 71.6 °F 35.6 °F 27% 29.99 in 9.0 mi SSE 6.9 mph - N/A   Partly Cloudy
11:53 AM 75.2 °F 35.6 °F 24% 29.97 in 10.0 mi Variable 4.6 mph - N/A   Scattered Clouds
12:53 PM 78.8 °F 37.4 °F 23% 29.96 in 8.0 mi ESE 8.1 mph - N/A   Scattered Clouds
1:53 PM 80.6 °F 37.4 °F 21% 29.95 in 8.0 mi Variable 4.6 mph - N/A   Scattered Clouds
2:53 PM 82.4 °F 37.4 °F 20% 29.93 in 10.0 mi Calm Calm - N/A   Scattered Clouds
3:53 PM 84.2 °F 37.4 °F 19% 29.91 in 10.0 mi Calm Calm - N/A   Scattered Clouds
4:53 PM 82.4 °F 30.2 °F 15% 29.91 in 10.0 mi SSW 11.5 mph 17.3 mph N/A   Scattered Clouds
5:53 PM 80.6 °F 35.6 °F 20% 29.93 in 10.0 mi South 9.2 mph - N/A   Scattered Clouds
6:53 PM 73.4 °F 37.4 °F 27% 29.95 in 10.0 mi South 8.1 mph - N/A   Scattered Clouds
7:53 PM 66.2 °F 37.4 °F 35% 29.96 in 10.0 mi SSE 8.1 mph - N/A   Scattered Clouds
8:53 PM 66.2 °F 35.6 °F 32% 29.98 in 10.0 mi SSE 10.4 mph - N/A   Partly Cloudy
9:53 PM 57.2 °F 37.4 °F 48% 30.00 in 10.0 mi SSE 9.2 mph - N/A   Partly Cloudy
10:53 PM 57.0 °F 37.9 °F 49% 30.02 in 8.0 mi Calm Calm - N/A   Clear
11:16 PM 51.8 °F 37.4 °F 58% 30.12 in 1.8 mi Calm Calm - N/A   Haze
11:27 PM 50.0 °F 37.4 °F 62% 30.13 in 3.0 mi NNE 3.5 mph - N/A   Haze
11:42 PM 51.8 °F 39.2 °F 62% 30.12 in 5.0 mi NNE 3.5 mph - N/A   Haze
11:53 PM 51.1 °F 37.9 °F 61% 30.04 in 10.0 mi Calm Calm - N/A   Clear